Other Surface Observations
Issued by NWS Tucson, AZ

Home | Current Version | Previous Version | Text Only | Print | Product List | Glossary On
Versions: 1 2 3 4 5 6 7 8 9 10 11 12 13 14 15 16 17 18 19 20 21 22 23 24 25 26 27 28 29 30 31 32 33 34 35 36 37 38 39 40 41 42 43 44 45 46 47 48 49 50
000
SXUS55 KTWC 272016
OSOTWC

WEATHER ROUNDUP FOR SOUTHEAST ARIZONA
NATIONAL WEATHER SERVICE TUCSON AZ
115 PM MST WED MAY 27 2015

AZZ504>506-514-272115-
LOCATION       SKY/WX    TMP DP  RH WIND       PRES   REMARKS
TUCSON         SUNNY     91  19   7 S10       29.96F
DAVIS-MONTHAN  SUNNY     90  15   6 SW9G20    29.95F
CHILDRENS PARK N/A       85  27  12 SE4               PIMA CO DEQ
ALVERNON/22ND  N/A      N/A N/A N/A N/A               PIMA CO DEQ
CHERRY/GLENN   N/A      N/A N/A N/A N/A               PIMA CO DEQ
TANGERINE      N/A       86 N/A N/A S8                PIMA CO DEQ
CONTL RANCH    N/A       88  29  12 E7                PIMA CO DEQ
GRANT/1ST      N/A       88  27  11 SE1               PIMA CO DEQ
CRAYCROFT/22ND N/A      N/A N/A N/A N/A               PIMA CO DEQ
GOLFLINKS/KOLB N/A      N/A N/A N/A N/A               PIMA CO DEQ
AJO/12TH       N/A       87  24  10 S7                PIMA CO DEQ
SAGUARO EAST   N/A      N/A N/A N/A N/A               PIMA CO DEQ
FAIRGROUNDS    N/A       87 N/A N/A W6                PIMA CO DEQ
SAGUARO        N/A       90  18   7 W4G12             *SABINO CYN
SAN CARLOS     N/A       88  38  17 SE5G12            *SAN CARLOS
GREEN VALLEY   N/A       88  22   9 SW9               PIMA CO DEQ
HORSE CAMP CYN N/A       81  31  16 SW2G12            *ARAVAIPA CYN
RINCON MTNS    N/A       73  17  12 S3G14             *NR MANNING CAMP
$$

AZZ509>511-272115-
LOCATION       SKY/WX    TMP DP  RH WIND       PRES   REMARKS
SAFFORD        CLOUDY    87  26  11 VRB5G20   29.97F
STRAY HORSE    N/A       70  22  16 E5G13             *
TRAIL CABIN    N/A       75  26  16 SW6G12            *N OF GRANVILLE
BLACK HILLS    N/A       87  32  14 SE5G11            *N OF FT THOMAS
DRY LAKE       N/A       67  25  20 S8G15             *NATANES MTNS
NOON CREEK     N/A       79  18  10 S5G14             *PINALENO MTNS
COLUMBINE      N/A       55  14  19 SE5G14            *PINALENO MTNS
GUTHRIE        N/A       73  19  13 S11G20            *SW OF GUTHRIE
$$

AZZ502-503-513-272115-
LOCATION       SKY/WX    TMP DP  RH WIND       PRES   REMARKS
NOGALES        SUNNY     88  10   5 S14       30.04F
SELLS          N/A       91  27  10 S9G17             *
SASABE         N/A       86  23  10 SW13G21           *ALTAR VLY
HOPKINS        N/A       74   6   7 S7G14             *SANTA RITA MTNS
CARR CYN       N/A       83  16   8 NE5G12            *W OF HEREFORD
$$

AZZ507-508-512-272115-
LOCATION       SKY/WX    TMP DP  RH WIND       PRES   REMARKS
SIERRA VISTA   MOSUNNY   83   7   5 VRB7      30.08F
DOUGLAS        MOSUNNY   86  15   7 SW17      30.05F
EMPIRE MTNS    N/A       83  13   7 SW7G17            *LAS CIENEGAS NCA
MULESHOE RANCH N/A       82  18   9 S8G15             *PRESERVE
HEADQUARTERS   N/A       81  14   8 W9G18             *CHIRICAHUA MTNS
$$

.............................NOTES.............................
THIS IS AN AUTOMATED COLLECTIVE WITH MINIMAL QUALITY CONTROL.
PIMA CO DEQ SITES HAVE NONSTANDARD WIND SENSOR HEIGHTS.
PIMA CO DEQ SITES DO NOT REPORT WIND GUSTS.
* INDICATES WIND SENSORS LOCATED AT 20 FEET INSTEAD OF 33 FEET.
..............................KEY..............................
SKY/WX - SKY CONDITION/WEATHER
TMP    - TEMPERATURE IN FAHRENHEIT
DP     - DEWPOINT IN FAHRENHEIT
RH     - RELATIVE HUMIDITY IN PERCENT
WIND   - DIRECTION AND SPEED IN MILES PER HOUR (MPH)
VRB    - VARIABLE WIND DIRECTION
PRES   - MEAN SEA LEVEL PRESSURE IN INCHES OF MERCURY
         F - FALLING PRESSURE   R - RISING PRESSURE
         S - STEADY PRESSURE
VSB    - VISIBILITY IN MILES
HX     - HEAT INDEX IN FAHRENHEIT
WCI    - WIND CHILL INDEX IN FAHRENHEIT
N/A    - NOT AVAILABLE
AFB    - AIR FORCE BASE
         DAVIS-MONTHAN IS DAVIS-MONTHAN AIR FORCE BASE
CYN    - CANYON
MTNS   - MOUNTAINS
NCA    - NATIONAL CONSERVATION AREA
NR     - NEAR
VLY    - VALLEY
CONTL  - CONTINENTAL
PIMA CO DEQ - PIMA COUNTY DEPT OF ENVIRONMENTAL QUALITY



USA.gov is the U.S. government's official web portal to all federal, state and local government web resources and services.